Location: Lango�lan
(48.1202°N, 3.2340°W)
Time: 19:55:13
(UTC+00:00)

Meteor 2-5 Rocket - Pass Details

Date: 23 October 2019
Orbit: 833 x 912 km, 81.2° (Epoch: 21 November)

Event Time Altitude Azimuth Distance (km) Brightness Sun altitude
Rises 05:57:14 0° 211° (SSW) 3,481 6.7 -8.4°
Reaches altitude 10° 05:59:47 10° 218° (SW) 2,557 5.9 -8.0°
Maximum altitude 06:05:19 43° 289° (WNW) 1,251 4.2 -7.1°
Drops below altitude 10° 06:10:58 10° 1° (N) 2,607 6.2 -6.2°
Sets 06:13:37 0° 8° (N) 3,557 6.9 -5.7°
